NKS2145 KFLL-KLGA

Flight info

Callsign NKS2145
Flight time 2h 10m
Altitude 33000
Route FEALX2 ETECK GRUBR Y299 SEELO GARIC Q107 HURTS PROUD2
Aircraft A321/M-SDE3FGHIRWY/LB1

Departure

Time 2026-05-03 22:07
Airport Fort Lauderdale Hollywood International Airport (KFLL)

Arrival

Time 2026-05-04 00:18
Airport LaGuardia Airport (KLGA)
Time Latitude Longitude Altitude Speed Heading
2026-05-03 21:19 26.06882 -80.14517 18 ft 0 kts
2026-05-03 21:39 26.06877 -80.14517 17 ft 3 kts
2026-05-03 21:39 26.06858 -80.14517 18 ft 3 kts
2026-05-03 21:39 26.06839 -80.14517 18 ft 3 kts 346°
2026-05-03 21:40 26.06822 -80.14509 18 ft 3 kts 299°
2026-05-03 21:40 26.06818 -80.14489 18 ft 2 kts 261°
2026-05-03 21:40 26.06819 -80.14478 20 ft 0 kts 265°
2026-05-03 21:48 26.06819 -80.14479 20 ft 1 kts 265°
2026-05-03 21:48 26.06811 -80.14500 18 ft 8 kts 245°
2026-05-03 21:48 26.06779 -80.14578 16 ft 12 kts 246°
2026-05-03 21:49 26.06765 -80.14671 16 ft 12 kts 269°
2026-05-03 21:49 26.06765 -80.14803 20 ft 24 kts 271°
2026-05-03 21:49 26.06767 -80.14990 22 ft 24 kts 271°
2026-05-03 21:49 26.06732 -80.15130 25 ft 17 kts 212°
2026-05-03 21:50 26.06696 -80.15236 25 ft 15 kts 269°
2026-05-03 21:50 26.06696 -80.15348 26 ft 14 kts 271°
2026-05-03 21:50 26.06697 -80.15463 26 ft 15 kts 270°
2026-05-03 21:50 26.06699 -80.15588 24 ft 17 kts 270°
2026-05-03 21:51 26.06699 -80.15697 23 ft 4 kts 269°
2026-05-03 21:51 26.06698 -80.15726 23 ft 0 kts 268°
2026-05-03 21:51 26.06698 -80.15728 23 ft 1 kts 268°
2026-05-03 21:51 26.06698 -80.15739 23 ft 2 kts 268°
2026-05-03 21:52 26.06698 -80.15741 23 ft 0 kts 268°
2026-05-03 21:52 26.06697 -80.15750 23 ft 0 kts 268°
2026-05-03 21:52 26.06697 -80.15760 23 ft 3 kts 268°
2026-05-03 21:53 26.06696 -80.15793 22 ft 5 kts 267°
2026-05-03 21:53 26.06682 -80.15814 22 ft 0 kts 202°
2026-05-03 22:05 26.06666 -80.15820 32 ft 4 kts 195°
2026-05-03 22:05 26.06606 -80.15824 20 ft 10 kts 179°
2026-05-03 22:06 26.06588 -80.15786 20 ft 0 kts 88°
2026-05-03 22:06 26.06589 -80.15648 24 ft 51 kts 90°
2026-05-03 22:07 26.06585 -80.14974 23 ft 121 kts 90°
2026-05-03 22:07 26.06582 -80.13818 44 ft 174 kts 88°
2026-05-03 22:07 26.06563 -80.12495 806 ft 168 kts 90°
2026-05-03 22:07 26.06568 -80.11191 1616 ft 172 kts 86°
2026-05-03 22:08 26.06610 -80.09777 1807 ft 195 kts 86°
2026-05-03 22:08 26.06653 -80.08143 1882 ft 221 kts 88°
2026-05-03 22:08 26.06684 -80.06351 2022 ft 249 kts 89°
2026-05-03 22:08 26.06703 -80.04336 2423 ft 267 kts 93°
2026-05-03 22:09 26.06718 -80.02249 3205 ft 273 kts 88°
2026-05-03 22:09 26.07221 -80.00212 3833 ft 277 kts 58°
2026-05-03 22:09 26.08416 -79.98512 4500 ft 281 kts 49°
2026-05-03 22:10 26.10983 -79.95106 5840 ft 294 kts 49°
2026-05-03 22:10 26.12290 -79.93333 6539 ft 299 kts 49°
2026-05-03 22:10 26.13612 -79.91533 7150 ft 302 kts 49°
2026-05-03 22:10 26.14947 -79.89713 7787 ft 305 kts 49°
2026-05-03 22:11 26.16284 -79.87870 8432 ft 308 kts 51°
2026-05-03 22:11 26.17578 -79.85958 9024 ft 311 kts 52°
2026-05-03 22:11 26.18852 -79.83997 9637 ft 314 kts 53°
2026-05-03 22:11 26.20128 -79.82007 10219 ft 319 kts 53°
2026-05-03 22:12 26.21460 -79.79931 10362 ft 340 kts 52°
2026-05-03 22:12 26.22875 -79.77735 10483 ft 359 kts 52°
2026-05-03 22:12 26.24371 -79.75423 10604 ft 377 kts 52°
2026-05-03 22:12 26.25943 -79.73001 10725 ft 394 kts 52°
2026-05-03 22:13 26.27574 -79.70493 11024 ft 404 kts 52°
2026-05-03 22:13 26.29258 -79.67970 11496 ft 408 kts 48°
2026-05-03 22:13 26.31179 -79.65679 11992 ft 410 kts 44°
2026-05-03 22:13 26.33173 -79.63392 12505 ft 413 kts 44°
2026-05-03 22:14 26.35187 -79.61079 13003 ft 417 kts 44°
2026-05-03 22:14 26.37212 -79.58752 13522 ft 420 kts 44°
2026-05-03 22:14 26.39255 -79.56403 14002 ft 424 kts 44°
2026-05-03 22:14 26.41317 -79.54034 14449 ft 427 kts 44°
2026-05-03 22:15 26.43394 -79.51646 14914 ft 430 kts 44°
2026-05-03 22:15 26.45486 -79.49234 15349 ft 434 kts 44°
2026-05-03 22:15 26.47592 -79.46804 15787 ft 437 kts 44°
2026-05-03 22:15 26.49713 -79.44355 15956 ft 440 kts 44°
2026-05-03 22:16 26.51839 -79.41897 15984 ft 440 kts 44°
2026-05-03 22:16 26.53971 -79.39444 15984 ft 439 kts 41°
2026-05-03 22:16 26.56308 -79.37270 15987 ft 435 kts 32°
2026-05-03 22:16 26.58868 -79.35479 15988 ft 434 kts 28°
2026-05-03 22:17 26.61418 -79.33754 15990 ft 434 kts 28°
2026-05-03 22:17 26.64003 -79.32002 16034 ft 436 kts 28°
2026-05-03 22:17 26.66601 -79.30238 16526 ft 438 kts 28°
2026-05-03 22:17 26.69217 -79.28455 17005 ft 441 kts 28°
2026-05-03 22:18 26.71848 -79.26661 17447 ft 445 kts 28°
2026-05-03 22:18 26.74504 -79.24851 17884 ft 448 kts 28°
2026-05-03 22:18 26.77177 -79.23025 18310 ft 452 kts 27°
2026-05-03 22:18 26.79870 -79.21185 18648 ft 456 kts 27°
2026-05-03 22:19 26.82590 -79.19325 18993 ft 459 kts 27°
2026-05-03 22:19 26.85320 -79.17457 19351 ft 462 kts 27°
2026-05-03 22:19 26.88071 -79.15568 19771 ft 465 kts 27°
2026-05-03 22:19 26.90846 -79.13670 20128 ft 469 kts 27°
2026-05-03 22:20 26.93644 -79.11766 20494 ft 472 kts 27°
2026-05-03 22:20 26.96460 -79.09847 20827 ft 475 kts 27°
2026-05-03 22:20 26.99289 -79.07915 21143 ft 478 kts 27°
2026-05-03 22:20 27.02132 -79.05968 21448 ft 480 kts 27°
2026-05-03 22:21 27.04987 -79.04006 21786 ft 483 kts 27°
2026-05-03 22:21 27.07868 -79.02025 22030 ft 487 kts 27°
2026-05-03 22:21 27.10766 -79.00031 22306 ft 490 kts 27°
2026-05-03 22:21 27.13685 -78.98023 22594 ft 493 kts 27°
2026-05-03 22:22 27.16623 -78.96003 22892 ft 496 kts 27°
2026-05-03 22:22 27.19576 -78.93971 23187 ft 499 kts 27°
2026-05-03 22:22 27.22503 -78.91962 23475 ft 501 kts 27°
2026-05-03 22:22 27.25491 -78.89909 23732 ft 504 kts 27°
2026-05-03 22:23 27.28494 -78.87843 24010 ft 507 kts 27°
2026-05-03 22:23 27.31502 -78.85765 24280 ft 509 kts 27°
2026-05-03 22:23 27.34523 -78.83674 24549 ft 511 kts 27°
2026-05-03 22:23 27.37591 -78.81663 24815 ft 510 kts 21°
2026-05-03 22:24 27.40846 -78.80133 25043 ft 505 kts 12°
2026-05-03 22:24 27.44230 -78.79160 25273 ft 499 kts
2026-05-03 22:24 27.47664 -78.78628 25500 ft 498 kts
2026-05-03 22:24 27.51116 -78.78131 25745 ft 500 kts
2026-05-03 22:25 27.54581 -78.77627 25990 ft 502 kts
2026-05-03 22:25 27.58056 -78.77120 26232 ft 504 kts
2026-05-03 22:25 27.61544 -78.76610 26519 ft 506 kts
2026-05-03 22:25 27.65044 -78.76097 26787 ft 508 kts
2026-05-03 22:26 27.68557 -78.75578 27024 ft 510 kts
2026-05-03 22:26 27.72074 -78.75058 27325 ft 510 kts
2026-05-03 22:26 27.75595 -78.74538 27656 ft 510 kts
2026-05-03 22:26 27.79064 -78.74029 27978 ft 509 kts
2026-05-03 22:27 27.82578 -78.73517 28326 ft 509 kts
2026-05-03 22:27 27.86086 -78.73003 28692 ft 509 kts
2026-05-03 22:27 27.89604 -78.72487 29032 ft 508 kts
2026-05-03 22:27 27.93111 -78.71971 29331 ft 510 kts 360°
2026-05-03 22:28 27.96636 -78.71454 29571 ft 511 kts 359°
2026-05-03 22:28 28.00173 -78.70935 29859 ft 512 kts 359°
2026-05-03 22:28 28.03708 -78.70415 30153 ft 512 kts 359°
2026-05-03 22:28 28.07242 -78.69889 30419 ft 512 kts 359°
2026-05-03 22:29 28.10770 -78.69362 30698 ft 512 kts 359°
2026-05-03 22:29 28.14297 -78.68837 30979 ft 511 kts 359°
2026-05-03 22:29 28.17819 -78.68317 31262 ft 510 kts 359°
2026-05-03 22:29 28.21337 -78.67802 31570 ft 510 kts 358°
2026-05-03 22:30 28.24855 -78.67289 31823 ft 510 kts 358°
2026-05-03 22:30 28.28367 -78.66772 32081 ft 509 kts 358°
2026-05-03 22:30 28.31881 -78.66251 32348 ft 509 kts 358°
2026-05-03 22:30 28.35390 -78.65726 32611 ft 508 kts 358°
2026-05-03 22:31 28.38893 -78.65202 32874 ft 507 kts 358°
2026-05-03 22:31 28.42395 -78.64679 33033 ft 508 kts 358°
2026-05-03 22:31 28.45899 -78.64155 33077 ft 507 kts 358°
2026-05-03 22:32 28.52840 -78.63119 33066 ft 505 kts 358°
2026-05-03 22:32 28.59809 -78.62079 33067 ft 505 kts 357°
2026-05-03 22:33 28.66784 -78.61045 33079 ft 505 kts 358°
2026-05-03 22:33 28.73751 -78.60004 33079 ft 505 kts 358°
2026-05-03 22:34 28.80730 -78.58962 33120 ft 506 kts 357°
2026-05-03 22:34 28.87710 -78.57915 33114 ft 505 kts 357°
2026-05-03 22:35 28.94686 -78.56863 33110 ft 505 kts 357°
2026-05-03 22:35 29.01659 -78.55813 33110 ft 505 kts 357°
2026-05-03 22:36 29.08621 -78.54773 33083 ft 503 kts 357°
2026-05-03 22:36 29.15541 -78.53727 33082 ft 501 kts 357°
2026-05-03 22:37 29.22462 -78.52676 33093 ft 502 kts 357°
2026-05-03 22:37 29.29355 -78.51632 33101 ft 503 kts 357°
2026-05-03 22:38 29.36301 -78.50586 33139 ft 503 kts 357°
2026-05-03 22:38 29.43237 -78.49544 33131 ft 502 kts 357°
2026-05-03 22:39 29.50118 -78.48915 33130 ft 485 kts 346°
2026-05-03 22:39 29.56769 -78.49595 33129 ft 479 kts 343°
2026-05-03 22:40 29.63409 -78.50317 33128 ft 479 kts 343°
2026-05-03 22:40 29.70018 -78.51028 33110 ft 476 kts 343°
2026-05-03 22:41 29.76623 -78.51749 33112 ft 477 kts 343°
2026-05-03 22:41 29.83225 -78.52473 33119 ft 477 kts 343°
2026-05-03 22:42 29.89795 -78.53179 33169 ft 477 kts 343°
2026-05-03 22:42 29.96416 -78.53896 33130 ft 477 kts 343°
2026-05-03 22:43 30.03034 -78.54611 33129 ft 478 kts 344°
2026-05-03 22:43 30.09660 -78.55330 33129 ft 478 kts 343°
2026-05-03 22:44 30.16354 -78.55707 33132 ft 493 kts 355°
2026-05-03 22:44 30.23217 -78.54748 33134 ft 498 kts 357°
2026-05-03 22:45 30.30089 -78.53748 33141 ft 498 kts 357°
2026-05-03 22:45 30.36963 -78.52760 33142 ft 498 kts 357°
2026-05-03 22:46 30.43838 -78.51776 33141 ft 498 kts 357°
2026-05-03 22:46 30.50680 -78.50694 33123 ft 500 kts 358°
2026-05-03 22:47 30.57579 -78.49529 33121 ft 502 kts 358°
2026-05-03 22:47 30.64500 -78.48378 33125 ft 502 kts 358°
2026-05-03 22:48 30.71427 -78.47259 33131 ft 503 kts 358°
2026-05-03 22:48 30.78340 -78.46149 33143 ft 499 kts 358°
2026-05-03 22:49 30.85223 -78.45029 33145 ft 499 kts 358°
2026-05-03 22:49 30.92094 -78.43914 33152 ft 499 kts 358°
2026-05-03 22:50 30.98972 -78.42787 33156 ft 499 kts 358°
2026-05-03 22:50 31.04684 -78.41849 33178 ft 499 kts 358°
2026-05-03 22:51 31.11562 -78.40725 33172 ft 499 kts 358°
2026-05-03 22:51 31.18440 -78.39596 33167 ft 499 kts 358°
2026-05-03 22:52 31.25313 -78.38468 33167 ft 499 kts 358°
2026-05-03 22:52 31.32194 -78.37329 33154 ft 499 kts 359°
2026-05-03 22:53 31.39072 -78.36197 33151 ft 499 kts 359°
2026-05-03 22:53 31.45953 -78.35071 33156 ft 499 kts 359°
2026-05-03 22:54 31.52840 -78.33932 33161 ft 500 kts 359°
2026-05-03 22:54 31.59723 -78.32788 33150 ft 498 kts 359°
2026-05-03 22:55 31.66587 -78.31653 33152 ft 498 kts 359°
2026-05-03 22:55 31.73459 -78.30515 33157 ft 499 kts 359°
2026-05-03 22:56 31.80292 -78.29380 33162 ft 499 kts 359°
2026-05-03 22:56 31.87176 -78.28225 33185 ft 499 kts 359°
2026-05-03 22:57 31.94055 -78.27074 33182 ft 499 kts 359°
2026-05-03 22:57 32.00936 -78.25928 33177 ft 499 kts 359°
2026-05-03 22:58 32.07813 -78.24836 33233 ft 498 kts 358°
2026-05-03 22:58 32.14675 -78.23863 33148 ft 496 kts 357°
2026-05-03 22:59 32.21529 -78.22905 33150 ft 496 kts 357°
2026-05-03 22:59 32.28400 -78.21911 33160 ft 497 kts 358°
2026-05-03 23:00 32.35272 -78.20890 33198 ft 498 kts 357°
2026-05-03 23:00 32.42154 -78.19865 33191 ft 498 kts 357°
2026-05-03 23:01 32.48994 -78.18854 33186 ft 498 kts 357°
2026-05-03 23:01 32.55875 -78.17855 33179 ft 498 kts 357°
2026-05-03 23:02 32.62758 -78.16853 33166 ft 498 kts 357°
2026-05-03 23:02 32.69628 -78.15834 33165 ft 497 kts 357°
2026-05-03 23:03 32.76499 -78.14816 33167 ft 497 kts 357°
2026-05-03 23:03 32.83372 -78.13798 33161 ft 498 kts 357°
2026-05-03 23:04 32.90245 -78.12774 33171 ft 498 kts 357°
2026-05-03 23:04 32.97124 -78.11745 33166 ft 498 kts 357°
2026-05-03 23:05 33.03999 -78.10723 33167 ft 498 kts 357°
2026-05-03 23:05 33.10879 -78.09710 33180 ft 498 kts 357°
2026-05-03 23:06 33.17732 -78.08689 33139 ft 494 kts 357°
2026-05-03 23:06 33.24554 -78.07658 33138 ft 494 kts 357°
2026-05-03 23:07 33.31373 -78.06638 33145 ft 494 kts 357°
2026-05-03 23:07 33.38209 -78.05623 33171 ft 495 kts 357°
2026-05-03 23:08 33.45041 -78.04599 33169 ft 494 kts 357°
2026-05-03 23:08 33.51863 -78.03571 33164 ft 494 kts 357°
2026-05-03 23:09 33.58641 -78.02540 33156 ft 494 kts 357°
2026-05-03 23:09 33.65456 -78.01512 33145 ft 492 kts 356°
2026-05-03 23:10 33.72187 -78.00486 33111 ft 486 kts 356°
2026-05-03 23:10 33.78894 -77.99471 33098 ft 486 kts 356°
2026-05-03 23:11 33.85616 -77.98459 33103 ft 487 kts 356°
2026-05-03 23:11 33.92345 -77.97433 33144 ft 487 kts 356°
2026-05-03 23:12 33.99062 -77.96370 33142 ft 486 kts 356°
2026-05-03 23:12 34.05765 -77.95318 33119 ft 485 kts 356°
2026-05-03 23:13 34.12468 -77.94268 33114 ft 486 kts 356°
2026-05-03 23:13 34.19170 -77.93208 33139 ft 484 kts 356°
2026-05-03 23:14 34.25853 -77.92158 33130 ft 484 kts 356°
2026-05-03 23:14 34.32523 -77.91112 33132 ft 484 kts 356°
2026-05-03 23:15 34.39198 -77.90054 33175 ft 484 kts 357°
2026-05-03 23:15 34.45839 -77.88994 33105 ft 479 kts 357°
2026-05-03 23:16 34.52454 -77.87952 33110 ft 479 kts 357°
2026-05-03 23:16 34.59070 -77.86911 33102 ft 480 kts 357°
2026-05-03 23:17 34.65697 -77.85858 33137 ft 479 kts 358°
2026-05-03 23:17 34.72283 -77.84812 33110 ft 477 kts 358°
2026-05-03 23:18 34.78860 -77.83759 33115 ft 477 kts 358°
2026-05-03 23:18 34.85446 -77.82711 33126 ft 478 kts 359°
2026-05-03 23:19 34.92001 -77.80736 33108 ft 486 kts
2026-05-03 23:19 34.98495 -77.78532 33104 ft 484 kts
2026-05-03 23:20 35.04944 -77.76349 33108 ft 485 kts
2026-05-03 23:20 35.11449 -77.74149 33113 ft 485 kts
2026-05-03 23:21 35.17948 -77.71940 33138 ft 484 kts
2026-05-03 23:21 35.24443 -77.69729 33127 ft 484 kts
2026-05-03 23:22 35.34158 -77.66421 33119 ft 483 kts
2026-05-03 23:22 35.40637 -77.64210 33117 ft 483 kts
2026-05-03 23:23 35.47111 -77.62000 33117 ft 483 kts
2026-05-03 23:23 35.53584 -77.59781 33112 ft 483 kts
2026-05-03 23:24 35.60062 -77.57557 33111 ft 484 kts
2026-05-03 23:24 35.66519 -77.55327 33092 ft 480 kts
2026-05-03 23:25 35.72946 -77.53115 33093 ft 480 kts
2026-05-03 23:25 35.79338 -77.50964 33098 ft 479 kts
2026-05-03 23:26 35.85786 -77.48901 33133 ft 479 kts
2026-05-03 23:26 35.92232 -77.46830 33129 ft 479 kts
2026-05-03 23:27 35.98674 -77.44717 33125 ft 479 kts
2026-05-03 23:27 36.05106 -77.42600 33120 ft 478 kts
2026-05-03 23:28 36.11534 -77.40488 33099 ft 476 kts
2026-05-03 23:28 36.17916 -77.38390 33096 ft 474 kts
2026-05-03 23:29 36.24306 -77.36295 33105 ft 475 kts
2026-05-03 23:29 36.30702 -77.34185 33109 ft 476 kts
2026-05-03 23:30 36.37099 -77.32070 33134 ft 476 kts
2026-05-03 23:30 36.43490 -77.29949 33126 ft 475 kts
2026-05-03 23:31 36.49872 -77.27834 33120 ft 474 kts
2026-05-03 23:31 36.56249 -77.25717 33144 ft 474 kts
2026-05-03 23:32 36.62591 -77.23613 33087 ft 471 kts
2026-05-03 23:32 36.68888 -77.21526 33090 ft 471 kts
2026-05-03 23:33 36.75223 -77.19412 33081 ft 472 kts
2026-05-03 23:33 36.81565 -77.17284 33110 ft 472 kts
2026-05-03 23:34 36.87909 -77.15168 33102 ft 472 kts
2026-05-03 23:34 36.94256 -77.13042 33098 ft 472 kts
2026-05-03 23:35 37.00609 -77.10902 33097 ft 473 kts
2026-05-03 23:35 37.06934 -77.08764 33072 ft 468 kts
2026-05-03 23:36 37.13222 -77.06649 33068 ft 468 kts
2026-05-03 23:36 37.19515 -77.04534 33072 ft 469 kts
2026-05-03 23:37 37.24756 -77.02765 33123 ft 469 kts
2026-05-03 23:37 37.32075 -77.00294 33111 ft 468 kts
2026-05-03 23:38 37.38365 -76.98157 33095 ft 468 kts
2026-05-03 23:38 37.43625 -76.96359 33092 ft 468 kts
2026-05-03 23:39 37.46741 -76.95030 33138 ft 479 kts 13°
2026-05-03 23:39 37.49716 -76.93163 33081 ft 485 kts 18°
2026-05-03 23:39 37.55677 -76.89192 33068 ft 485 kts 18°
2026-05-03 23:40 37.61641 -76.85210 33085 ft 485 kts 17°
2026-05-03 23:40 37.67621 -76.81224 33077 ft 486 kts 17°
2026-05-03 23:41 37.73610 -76.77227 33074 ft 487 kts 17°
2026-05-03 23:41 37.79604 -76.73209 33074 ft 488 kts 18°
2026-05-03 23:42 37.85606 -76.69186 33070 ft 488 kts 17°
2026-05-03 23:42 37.91623 -76.65225 33088 ft 485 kts 16°
2026-05-03 23:43 37.97603 -76.61468 33058 ft 483 kts 15°
2026-05-03 23:43 38.03640 -76.57704 33051 ft 483 kts 15°
2026-05-03 23:44 38.09663 -76.53902 33058 ft 484 kts 16°
2026-05-03 23:44 38.15674 -76.50061 33056 ft 481 kts 16°
2026-05-03 23:45 38.21653 -76.46231 33041 ft 481 kts 16°
2026-05-03 23:45 38.27646 -76.42403 33042 ft 483 kts 17°
2026-05-03 23:46 38.30544 -76.40124 33041 ft 497 kts 27°
2026-05-03 23:46 38.33299 -76.37439 33092 ft 499 kts 28°
2026-05-03 23:46 38.38808 -76.32041 33081 ft 499 kts 28°
2026-05-03 23:47 38.44309 -76.26651 33072 ft 499 kts 28°
2026-05-03 23:47 38.49813 -76.21262 33071 ft 499 kts 28°
2026-05-03 23:48 38.55274 -76.15903 33052 ft 497 kts 28°
2026-05-03 23:48 38.60732 -76.10528 33036 ft 495 kts 28°
2026-05-03 23:49 38.66221 -76.05192 32897 ft 496 kts 27°
2026-05-03 23:49 38.68999 -76.02594 32625 ft 494 kts 26°
2026-05-03 23:49 38.71791 -76.00025 32358 ft 494 kts 26°
2026-05-03 23:50 38.74582 -75.97463 32153 ft 493 kts 26°
2026-05-03 23:50 38.77357 -75.94899 31901 ft 492 kts 26°
2026-05-03 23:50 38.80128 -75.92320 31641 ft 491 kts 26°
2026-05-03 23:50 38.82887 -75.89735 31360 ft 491 kts 27°
2026-05-03 23:51 38.85657 -75.87130 30333 ft 499 kts 27°
2026-05-03 23:51 38.88479 -75.84481 29223 ft 504 kts 27°
2026-05-03 23:51 38.91308 -75.81817 28194 ft 505 kts 28°
2026-05-03 23:51 38.94136 -75.79149 27195 ft 505 kts 28°
2026-05-03 23:52 38.96971 -75.76470 26296 ft 503 kts 28°
2026-05-03 23:52 38.99725 -75.73856 25875 ft 493 kts 29°
2026-05-03 23:52 39.02462 -75.71249 25622 ft 487 kts 29°
2026-05-03 23:52 39.05182 -75.68671 25371 ft 484 kts 28°
2026-05-03 23:53 39.07884 -75.66116 25111 ft 481 kts 28°
2026-05-03 23:53 39.10577 -75.63567 24859 ft 479 kts 29°
2026-05-03 23:53 39.13260 -75.61024 24629 ft 477 kts 29°
2026-05-03 23:53 39.15931 -75.58492 24418 ft 475 kts 29°
2026-05-03 23:54 39.18586 -75.55966 24175 ft 473 kts 30°
2026-05-03 23:54 39.21228 -75.53446 23943 ft 471 kts 30°
2026-05-03 23:54 39.23855 -75.50943 24004 ft 471 kts 29°
2026-05-03 23:54 39.26523 -75.48483 23760 ft 469 kts 28°
2026-05-03 23:55 39.29204 -75.46099 23512 ft 466 kts 27°
2026-05-03 23:55 39.31890 -75.43762 23230 ft 464 kts 27°
2026-05-03 23:55 39.34570 -75.41442 22995 ft 462 kts 27°
2026-05-03 23:55 39.37194 -75.39157 22727 ft 460 kts 28°
2026-05-03 23:56 39.39831 -75.36834 22447 ft 458 kts 28°
2026-05-03 23:56 39.42450 -75.34504 22172 ft 456 kts 28°
2026-05-03 23:56 39.45052 -75.32177 21901 ft 454 kts 28°
2026-05-03 23:56 39.47641 -75.29855 21632 ft 452 kts 28°
2026-05-03 23:57 39.50222 -75.27541 21368 ft 450 kts 28°
2026-05-03 23:57 39.52783 -75.25225 21106 ft 449 kts 29°
2026-05-03 23:57 39.55319 -75.22874 20853 ft 447 kts 30°
2026-05-03 23:57 39.57827 -75.20514 20574 ft 445 kts 30°
2026-05-03 23:58 39.60318 -75.18154 20099 ft 442 kts 31°
2026-05-03 23:58 39.62787 -75.15807 19621 ft 438 kts 31°
2026-05-03 23:58 39.65241 -75.13478 19142 ft 435 kts 31°
2026-05-03 23:58 39.67679 -75.11173 18679 ft 432 kts 30°
2026-05-03 23:59 39.70126 -75.08947 18199 ft 427 kts 29°
2026-05-03 23:59 39.72585 -75.06815 17702 ft 423 kts 28°
2026-05-03 23:59 39.75028 -75.04751 17365 ft 413 kts 27°
2026-05-03 23:59 39.77399 -75.02755 17231 ft 399 kts 27°
2026-05-04 00:00 39.79689 -75.00816 17092 ft 385 kts 27°
2026-05-04 00:00 39.81887 -74.98936 16946 ft 371 kts 27°
2026-05-04 00:00 39.84005 -74.97112 16806 ft 358 kts 27°
2026-05-04 00:00 39.86023 -74.95356 16673 ft 342 kts 27°
2026-05-04 00:01 39.87955 -74.93628 16349 ft 333 kts 28°
2026-05-04 00:01 39.89856 -74.91907 15744 ft 337 kts 28°
2026-05-04 00:01 39.91784 -74.90119 15152 ft 343 kts 33°
2026-05-04 00:01 39.93494 -74.87948 14798 ft 343 kts 43°
2026-05-04 00:02 39.95056 -74.85677 14424 ft 338 kts 43°
2026-05-04 00:02 39.96627 -74.83415 13922 ft 335 kts 42°
2026-05-04 00:02 39.98185 -74.81187 13378 ft 331 kts 42°
2026-05-04 00:02 39.99729 -74.78988 12842 ft 327 kts 42°
2026-05-04 00:03 40.01256 -74.76813 12307 ft 323 kts 42°
2026-05-04 00:03 40.02761 -74.74665 11790 ft 319 kts 42°
2026-05-04 00:03 40.04251 -74.72534 11274 ft 316 kts 42°
2026-05-04 00:03 40.05724 -74.70423 10902 ft 314 kts 42°
2026-05-04 00:04 40.07186 -74.68322 10556 ft 312 kts 42°
2026-05-04 00:04 40.08639 -74.66232 10208 ft 310 kts 42°
2026-05-04 00:04 40.10081 -74.64155 10019 ft 307 kts 42°
2026-05-04 00:04 40.11518 -74.62088 10034 ft 308 kts 42°
2026-05-04 00:05 40.12959 -74.60014 10035 ft 309 kts 42°
2026-05-04 00:05 40.14401 -74.57932 10032 ft 309 kts 42°
2026-05-04 00:05 40.15843 -74.55851 10033 ft 309 kts 42°
2026-05-04 00:05 40.17285 -74.53771 10032 ft 309 kts 42°
2026-05-04 00:06 40.18730 -74.51685 10032 ft 309 kts 42°
2026-05-04 00:06 40.20174 -74.49602 10034 ft 309 kts 41°
2026-05-04 00:06 40.21663 -74.47583 10031 ft 308 kts 39°
2026-05-04 00:06 40.23194 -74.45635 10039 ft 307 kts 38°
2026-05-04 00:07 40.24744 -74.43714 10039 ft 307 kts 37°
2026-05-04 00:07 40.26294 -74.41802 10038 ft 305 kts 37°
2026-05-04 00:07 40.27793 -74.39935 10034 ft 289 kts 37°
2026-05-04 00:07 40.29209 -74.38154 10045 ft 285 kts 37°
2026-05-04 00:08 40.30644 -74.36349 9776 ft 285 kts 37°
2026-05-04 00:08 40.32066 -74.34559 9455 ft 281 kts 37°
2026-05-04 00:08 40.33472 -74.32787 9097 ft 279 kts 37°
2026-05-04 00:08 40.34888 -74.31001 8711 ft 279 kts 37°
2026-05-04 00:09 40.36261 -74.29262 8337 ft 278 kts 38°
2026-05-04 00:09 40.37650 -74.27499 7952 ft 278 kts 38°
2026-05-04 00:09 40.39036 -74.25739 7576 ft 277 kts 38°
2026-05-04 00:09 40.40416 -74.23984 7206 ft 276 kts 38°
2026-05-04 00:10 40.41796 -74.22229 6842 ft 276 kts 38°
2026-05-04 00:10 40.43170 -74.20479 6486 ft 275 kts 38°
2026-05-04 00:10 40.44544 -74.18728 6113 ft 275 kts 39°
2026-05-04 00:10 40.45917 -74.16981 5754 ft 274 kts 39°
2026-05-04 00:11 40.47286 -74.15240 5406 ft 273 kts 39°
2026-05-04 00:11 40.48646 -74.13510 5054 ft 272 kts 39°
2026-05-04 00:11 40.50001 -74.11784 4703 ft 271 kts 39°
2026-05-04 00:11 40.51350 -74.10062 4335 ft 270 kts 38°
2026-05-04 00:12 40.52822 -74.08581 3989 ft 264 kts 27°
2026-05-04 00:12 40.54367 -74.07280 3626 ft 264 kts 27°
2026-05-04 00:12 40.55902 -74.05982 3305 ft 263 kts 27°
2026-05-04 00:12 40.57434 -74.04683 3046 ft 260 kts 27°
2026-05-04 00:13 40.58946 -74.03399 3019 ft 253 kts 27°
2026-05-04 00:13 40.60379 -74.02174 3020 ft 239 kts 27°
2026-05-04 00:13 40.61771 -74.00986 3025 ft 237 kts 27°
2026-05-04 00:13 40.63156 -73.99812 3029 ft 237 kts 27°
2026-05-04 00:14 40.64545 -73.98639 3027 ft 236 kts 27°
2026-05-04 00:14 40.65925 -73.97471 3056 ft 233 kts 27°
2026-05-04 00:14 40.67247 -73.96337 2885 ft 222 kts 27°
2026-05-04 00:14 40.68507 -73.95245 2711 ft 212 kts 27°
2026-05-04 00:15 40.69689 -73.94151 2564 ft 205 kts 37°
2026-05-04 00:15 40.70636 -73.92814 2411 ft 194 kts 42°
2026-05-04 00:15 40.71515 -73.91509 2258 ft 190 kts 49°
2026-05-04 00:15 40.72077 -73.89949 2061 ft 194 kts 72°
2026-05-04 00:16 40.72377 -73.88235 1746 ft 191 kts 75°
2026-05-04 00:16 40.72672 -73.86532 1467 ft 189 kts 74°
2026-05-04 00:16 40.73121 -73.84997 1152 ft 171 kts 55°
2026-05-04 00:16 40.73914 -73.83936 884 ft 158 kts 25°
2026-05-04 00:17 40.74915 -73.83491 703 ft 149 kts
2026-05-04 00:17 40.75909 -73.83648 487 ft 141 kts 331°
2026-05-04 00:17 40.76608 -73.84507 282 ft 137 kts 304°
2026-05-04 00:17 40.77128 -73.85557 93 ft 136 kts 302°
2026-05-04 00:18 40.77597 -73.86532 16 ft 99 kts 302°
2026-05-04 00:18 40.77810 -73.86981 19 ft 31 kts 291°
2026-05-04 00:18 40.77813 -73.87168 18 ft 15 kts 272°
2026-05-04 00:18 40.77854 -73.87298 18 ft 16 kts 302°
2026-05-04 00:19 40.77913 -73.87420 19 ft 16 kts 300°
2026-05-04 00:19 40.77973 -73.87551 18 ft 17 kts 301°
2026-05-04 00:19 40.77992 -73.87671 18 ft 13 kts 219°
2026-05-04 00:19 40.77913 -73.87737 18 ft 14 kts 211°
2026-05-04 00:20 40.77821 -73.87812 18 ft 18 kts 213°
2026-05-04 00:20 40.77704 -73.87912 18 ft 21 kts 211°
2026-05-04 00:20 40.77575 -73.88017 19 ft 22 kts 213°
2026-05-04 00:20 40.77441 -73.88128 18 ft 23 kts 212°
2026-05-04 00:21 40.77341 -73.88212 19 ft 14 kts 213°
2026-05-04 00:21 40.77290 -73.88309 18 ft 14 kts 265°
2026-05-04 00:21 40.77286 -73.88428 18 ft 9 kts 293°
2026-05-04 00:21 40.77324 -73.88427 18 ft 0 kts 22°